SCP
0 0 0 0 0 0 0 0 0 0 0 -0 -0 0 0 0 0 0 -0 -0 -0 0 0 -0 -0 -0 0 0 0 0 0 0 0 0 0 0 0 0 0 0 0 0 0 0 0 0 0 0 0
0 0 0 0 0 0 0 0 0 0 0 0 -0 -0 0 0 0 0 0 -0 -0 0 0 0 -0 -0 0 0 0 0 0 0 0 0 0 0 0 0 0 0 0 0 0 0 0 0 0 0 0
0 0 0 0 0 0 0 0 0 0 0 0 0 -0 0 0 0 0 -0 0 -0 0 0 0 -0 0 0 0 0 0 0 0 0 0 0 0 0 0 0 0 0 0 0 0 0 0 0 0 0
0 0 0 0 0 0 0 0 0 0 0 -0 0 0 0 0 0 0 0 0 0 0 0 0 0 0 0 0 0 0 0 0 0 0 0 0 0 0 0 0 0 0 0 0 0 0 0 0 0
0 0 0 0 0 0 0 -0 0 0 0 0 0 0 0 0 0 0 0 0 0 0 0 0 0 0 0 1 1 0 0 0 0 0 0 0 0 0 0 0 0 0 0 0 0 0 0 0 0
0 0 0 0 0 0 -0 -0 0 0 0 0 0 0 0 0 0 0 0 0 0 0 0 0 0 0 1 1 1 1 0 0 0 1 0 0 0 0 0 0 0 0 0 0 0 0 0 0 0
0 0 0 0 0 -0 -0 0 0 0 0 0 0 0 0 0 -0 0 0 0 0 0 0 0 0 0 1 1 1 1 1 1 1 1 1 1 1 0 0 0 0 0 0 0 0 0 0 0 0
0 0 0 0 0 0 0 0 0 0 0 0 0 0 0 -0 0 0 0 0 0 0 0 0 0 0 1 1 1 1 1 1 1 1 1 1 1 1 0 0 0 0 0 0 0 0 0 0 0
0 0 0 0 0 0 0 0 0 0 0 0 0 0 0 0 0 0 0 0 0 0 0 0 0 0 0 1 1 2 1 1 1 1 1 1 1 1 1 1 0 0 0 0 0 0 0 0 0
0 0 0 0 0 0 0 0 0 0 0 0 0 0 0 0 0 0 0 0 0 0 0 0 0 0 0 0 0 1 1 1 1 1 1 1 1 1 1 1 1 0 0 0 0 0 0 0 0
0 0 0 0 0 0 0 0 -0 0 0 -0 0 0 0 0 0 0 0 0 0 0 0 0 0 0 0 0 0 1 2 1 1 1 1 1 1 1 2 0 0 1 1 1 1 1 1 0 0
0 0 0 0 0 0 0 0 -0 0 -0 -0 0 0 -0 0 0 0 0 0 0 0 0 0 0 0 0 0 0 0 1 1 1 1 1 1 1 0 0 0 0 0 0 1 1 1 0 0 0
0 0 0 0 0 0 0 0 0 0 0 0 0 0 0 0 0 0 0 0 0 0 0 0 0 0 0 0 0 0 0 1 1 1 1 1 1 0 0 0 0 0 0 0 1 0 0 0 0
0 0 0 0 0 0 0 0 -0 0 0 0 0 0 0 0 0 0 0 0 0 0 0 0 0 0 0 0 0 0 0 0 0 1 1 1 0 0 0 0 0 0 0 0 0 0 0 0 0
0 0 0 0 0 0 0 0 0 0 0 0 0 0 0 0 0 0 0 0 0 0 0 0 0 0 0 0 0 0 0 0 0 1 1 0 0 0 0 0 0 0 0 0 0 0 0 0 0
0 0 0 0 0 0 0 0 -0 0 0 0 0 0 0 0 0 0 0 0 0 0 0 0 0 0 0 0 0 0 0 0 0 0 1 0 0 0 0 0 0 0 0 0 0 0 0 0 0
0 0 0 0 0 0 0 0 0 0 0 0 0 0 0 0 0 0 0 0 0 0 0 0 0 0 0 0 0 0 0 0 0 0 0 0 0 0 0 0 0 0 0 0 0 0 0 0 0
0 0 0 0 0 0 0 0 0 0 0 0 0 0 0 0 0 0 0 0 0 0 0 0 0 0 0 0 0 0 0 0 0 0 0 0 0 0 0 0 0 0 0 0 0 0 0 0 0
0 0 0 0 0 0 0 0 0 0 0 0 0 0 0 0 0 0 0 0 0 0 0 0 0 0 0 0 0 0 0 0 0 0 0 0 0 0 0 0 0 0 0 0 0 0 0 0 0
0 0 0 0 0 0 0 0 0 0 0 0 0 0 0 0 0 0 0 0 0 0 0 0 0 0 0 0 0 0 0 0 0 0 0 0 0 0 0 0 0 0 0 0 0 0 0 0 0
0 0 0 0 0 0 0 0 0 0 0 0 0 0 0 0 0 0 0 0 0 0 0 0 0 0 0 0 0 0 0 0 0 0 0 0 0 0 0 0 0 0 0 0 0 0 0 0 0
0 0 0 0 0 0 0 -0 0 -0 -0 0 0 0 -0 0 0 0 0 0 0 0 0 0 0 0 0 0 0 0 0 0 0 0 0 0 0 0 0 0 0 0 0 0 0 0 0 0 0
0 0 0 0 0 0 0 0 -0 -0 -0 -0 0 -0 0 0 0 0 0 0 0 0 0 0 0 0 0 0 0 0 0 0 0 0 0 0 0 0 0 0 0 0 0 0 0 0 0 0 0
0 0 0 0 0 0 0 0 -0 -0 0 -0 0 0 0 0 0 0 0 0 0 0 0 0 0 0 0 0 0 0 0 0 0 0 0 0 0 0 0 0 0 0 0 0 0 0 0 0 0
0 0 0 0 0 0 0 0 0 0 0 0 0 0 0 0 0 0 0 0 0 0 0 0 0 0 0 0 0 0 0 0 0 0 0 0 0 0 0 0 0 0 0 0 0 0 0 0 0
0 0 0 0 0 0 0 0 0 -0 0 -0 0 0 0 0 0 0 0 0 0 0 0 0 0 0 0 0 0 0 0 0 0 0 0 0 0 0 0 0 0 0 0 0 0 0 0 0 0
0 0 0 0 0 0 0 0 -0 0 0 0 -0 -0 -0 0 0 0 0 0 0 0 0 0 0 0 0 0 0 0 0 0 0 0 0 0 0 0 0 0 0 0 0 0 0 0 0 0 0
0 0 0 0 0 0 0 0 0 0 -0 -0 -0 0 0 0 0 0 0 0 0 0 0 0 0 0 0 0 0 0 0 0 0 0 0 0 0 0 0 0 0 0 0 0 0 0 0 0 0
0 0 0 0 0 0 0 0 -0 -0 0 0 0 0 0 0 0 0 0 0 0 0 0 0 0 0 0 0 0 0 0 0 0 0 0 0 0 0 0 0 0 0 0 0 0 0 0 0 0
0 0 0 0 0 0 0 0 0 0 0 -0 0 0 0 0 0 0 0 0 0 0 0 0 0 0 0 0 0 0 0 0 0 0 0 0 0 0 0 0 0 0 0 0 0 -0 0 0 0
Wind_Speed_500mb
13 11 14 12 6 8 7 14 7 11 8 3 11 22 31 22 18 10 35 43 38 39 36 39 31 29 28 27 27 27 28 24 20 17 15 13 11 10 11 10 10 7 3 3 5 7 10 12 13
13 15 15 6 8 1 11 11 13 15 21 32 11 13 9 12 18 11 44 45 41 35 39 33 32 31 29 27 29 30 30 26 23 18 14 11 8 7 8 9 9 7 4 1 4 5 7 7 7
16 20 9 8 8 12 11 10 13 16 27 17 6 18 12 8 31 35 45 45 45 43 38 31 30 30 30 31 33 34 34 30 26 21 16 12 9 8 6 6 6 6 3 3 4 6 8 9 11
20 10 2 6 15 12 14 10 6 18 32 2 14 9 5 12 25 43 47 44 44 39 31 30 25 30 33 35 37 37 37 34 31 27 22 18 14 11 7 3 3 4 3 1 4 5 6 9 9
23 5 3 8 12 11 10 32 37 13 13 33 19 9 6 21 33 41 44 42 37 30 30 30 28 32 39 42 40 41 41 40 37 34 31 27 23 18 13 7 2 3 3 4 4 6 7 10 14
11 6 2 14 12 8 10 31 31 14 19 20 1 10 12 22 31 34 39 33 24 20 26 28 32 36 43 47 44 44 45 44 44 43 40 37 32 27 21 15 9 7 7 5 4 7 9 11 16
11 8 9 7 8 8 12 29 13 12 14 4 5 11 9 32 26 31 31 22 23 28 33 35 36 41 49 50 51 50 51 51 50 50 47 45 40 34 28 22 16 11 11 8 7 7 6 9 15
11 7 7 11 9 13 7 4 11 3 8 24 3 6 6 25 31 31 30 26 29 33 39 38 45 49 53 56 60 60 57 56 56 55 54 52 47 42 34 28 22 16 14 11 9 8 9 10 14
13 3 11 15 14 10 1 9 10 20 21 32 15 13 23 4 23 29 39 37 35 38 40 48 54 55 56 62 67 67 64 62 62 62 62 59 57 51 42 35 29 22 18 16 12 11 10 11 14
13 10 19 13 23 8 19 8 9 10 25 13 18 8 15 17 18 34 40 41 45 43 42 51 58 60 66 68 73 74 72 70 69 72 72 70 66 59 49 42 34 28 24 22 18 15 13 13 13
16 19 24 16 38 33 33 39 15 7 12 16 12 51 38 19 14 34 39 45 46 47 44 52 58 63 70 76 79 82 79 79 78 79 81 77 70 59 48 37 41 34 29 28 24 20 19 15 16
12 37 47 16 38 25 23 32 7 24 46 52 48 56 58 44 36 26 43 46 43 54 54 55 67 71 77 83 89 90 85 84 86 87 87 82 75 69 37 59 57 44 35 32 28 24 23 20 19
27 15 29 53 45 47 38 40 35 39 61 65 57 58 58 51 41 37 40 48 46 41 44 51 65 70 78 85 87 91 90 88 88 93 91 86 81 74 61 56 58 48 39 37 31 28 27 26 23
1 41 49 36 31 30 13 34 19 35 70 62 69 72 71 60 53 45 41 44 46 52 54 56 59 66 63 63 68 68 72 72 75 78 84 87 84 76 66 59 56 48 44 38 32 29 29 31 31
36 13 11 14 9 15 17 51 39 52 65 59 62 74 74 70 57 53 51 45 52 63 68 72 73 56 60 59 58 58 59 63 66 65 68 70 73 70 63 58 58 49 43 35 32 32 34 32 39
8 10 35 33 15 14 20 51 47 43 39 56 65 71 63 63 60 57 62 69 74 74 81 75 72 68 58 54 48 47 50 50 58 59 60 54 51 51 54 53 55 45 36 31 29 33 37 38 39
7 34 25 26 20 15 25 47 27 44 32 48 65 70 77 80 81 80 71 68 71 82 80 81 66 64 55 54 48 51 50 50 49 55 51 38 35 36 42 43 37 35 34 29 31 32 35 39 40
19 22 31 16 8 29 27 56 31 46 40 51 52 62 70 76 81 77 72 75 84 77 73 65 62 57 54 57 53 53 53 55 47 47 39 29 32 31 33 29 34 33 31 33 32 29 29 35 37
9 20 5 9 11 12 38 47 32 21 37 43 56 71 79 86 103 95 83 62 68 63 64 57 54 49 51 61 56 56 59 53 45 41 31 30 31 31 30 23 27 30 36 34 29 32 32 33 31
7 3 5 8 11 8 14 22 17 14 21 39 57 64 66 86 89 87 77 73 66 68 55 48 44 42 49 59 59 58 47 46 34 31 29 30 30 30 26 26 25 26 32 33 31 31 30 27 24
14 19 6 4 15 14 12 26 24 16 27 51 61 73 74 70 75 74 66 65 63 66 63 56 44 47 53 58 56 45 42 34 33 35 33 33 31 29 23 21 20 25 28 29 28 27 26 22 20
9 12 10 14 8 16 6 25 34 30 32 19 43 58 60 65 74 79 77 69 62 60 59 52 46 49 50 53 45 40 37 32 32 33 32 30 28 27 24 20 20 26 28 28 26 24 21 21 21
21 12 12 8 8 4 4 10 7 11 23 34 34 59 67 87 90 90 89 79 73 65 52 51 47 45 47 45 35 32 27 23 29 36 33 28 27 25 24 24 27 28 28 26 23 19 18 19 21
6 11 2 5 6 7 14 15 37 18 36 30 29 51 63 65 60 61 57 54 53 49 51 48 46 44 38 35 31 27 25 30 35 34 30 28 24 26 30 28 26 28 28 23 18 19 19 19 21
4 9 4 3 6 18 22 18 42 16 17 10 13 23 31 36 42 45 52 58 53 52 45 40 39 39 38 35 33 30 28 29 26 29 29 27 25 24 25 26 27 27 21 19 16 17 16 16 14
13 15 9 12 9 9 21 24 15 26 48 65 50 44 39 39 39 43 45 43 45 41 38 38 40 42 39 38 37 33 31 30 29 25 22 21 19 21 21 22 22 20 20 17 15 13 14 14 14
8 8 11 5 5 3 11 15 20 24 33 19 18 25 37 49 51 52 43 43 35 35 39 43 45 42 42 42 38 36 32 28 23 24 23 20 21 19 18 18 16 18 19 16 13 15 14 14 15
8 9 6 4 7 9 9 12 18 9 13 17 15 24 56 68 79 53 34 42 37 34 43 44 43 42 43 40 37 31 27 24 21 21 19 20 19 16 15 13 16 19 16 14 14 15 13 14 14
10 6 1 7 9 7 6 11 13 28 4 9 14 31 60 73 64 23 25 33 31 44 48 49 45 45 44 42 36 29 25 20 19 18 18 16 15 14 12 14 17 16 15 15 15 12 11 11 11
4 8 1 6 10 13 4 13 6 9 10 14 19 51 63 52 41 11 20 32 47 54 54 50 50 48 47 41 33 25 21 21 18 17 15 14 16 15 13 15 16 17 17 16 10 11 10 10 11
Wind_Direction_500mb
197 198 168 147 70 65 260 253 270 273 284 204 148 161 184 174 164 210 160 165 169 175 167 170 172 181 181 181 183 181 182 182 179 170 160 151 137 123 109 100 90 85 99 219 227 242 251 263 265
188 174 159 120 108 142 263 241 246 247 256 301 257 193 161 212 198 168 161 164 168 170 177 170 178 186 187 191 197 194 195 192 191 190 180 169 151 129 115 106 86 83 76 200 236 260 272 267 274
174 169 165 146 168 194 234 220 225 265 284 266 256 208 196 200 203 173 168 163 172 182 185 183 183 193 197 200 207 204 205 204 202 203 202 202 191 173 150 114 89 89 100 179 212 233 251 262 282
165 179 114 153 223 254 221 250 248 317 341 321 202 246 213 182 180 175 165 171 178 179 186 194 200 207 208 209 213 211 213 215 214 213 216 221 222 216 202 158 85 59 47 294 226 239 242 261 266
171 195 160 255 239 246 251 269 291 284 279 284 274 256 225 187 161 173 178 172 176 176 191 202 213 217 216 215 218 219 222 223 223 222 224 227 228 225 225 232 262 348 11 337 288 266 266 277 281
151 127 111 236 234 232 245 257 262 259 290 288 134 182 239 188 167 168 176 176 174 188 197 209 218 225 225 221 222 228 231 231 230 230 229 231 231 227 227 233 253 298 327 320 298 272 277 284 283
161 117 217 235 267 254 234 260 216 262 285 309 211 158 236 194 182 178 173 170 193 206 218 224 225 231 229 230 230 232 234 235 236 236 235 235 235 234 230 231 242 269 297 296 301 293 286 286 285
212 130 206 226 216 259 264 296 328 307 276 353 15 205 230 192 191 185 186 196 207 218 226 239 241 237 238 237 236 235 236 237 240 240 239 239 238 236 234 235 240 254 276 271 285 285 288 298 287
184 143 223 213 184 233 137 24 326 324 288 329 359 38 9 148 197 195 203 211 218 226 236 240 244 246 247 245 243 240 239 241 242 242 242 240 239 237 237 238 241 247 263 256 262 270 284 304 301
173 186 227 182 221 261 293 282 318 315 322 315 264 14 19 17 254 217 216 223 228 233 245 251 249 252 250 251 250 245 243 243 243 242 241 240 242 240 241 240 240 246 257 255 254 258 271 299 295
195 227 232 236 224 243 267 286 251 255 278 246 271 313 320 325 317 260 245 235 242 246 247 271 262 256 259 256 256 250 250 246 248 246 244 243 243 239 235 258 249 248 255 255 255 258 262 286 287
206 223 232 249 234 250 257 268 220 230 258 282 290 296 299 296 294 291 259 253 262 261 262 285 271 261 262 261 257 257 254 254 253 251 248 245 243 237 231 272 252 251 254 256 257 260 260 266 271
239 230 227 242 255 262 272 265 271 264 270 278 291 292 290 290 292 292 286 266 259 272 287 291 277 268 270 266 262 258 256 260 261 257 255 250 247 242 245 263 243 248 255 257 259 262 255 255 268
142 233 250 260 259 268 268 276 247 274 276 285 288 287 286 290 288 289 284 280 276 294 300 303 290 288 284 271 260 256 256 259 263 265 262 255 251 248 247 251 247 246 260 256 262 264 257 263 265
260 295 298 232 221 251 265 279 249 256 275 283 283 279 280 285 286 283 287 285 289 296 302 297 295 294 286 277 259 248 256 257 262 266 265 263 257 252 249 250 247 250 253 250 261 265 250 254 261
194 188 248 251 181 230 169 262 274 265 254 258 270 273 278 280 282 284 288 291 294 298 300 295 288 292 283 267 247 257 260 257 256 261 263 267 262 251 246 244 245 245 234 250 266 271 254 261 261
233 237 221 254 216 193 185 256 253 248 251 265 268 274 277 278 278 279 284 289 295 298 297 297 292 289 272 254 245 259 254 251 253 258 261 263 251 234 233 232 233 225 232 254 280 271 263 257 261
208 219 237 220 183 198 224 254 250 266 277 268 271 277 279 277 276 284 288 292 294 298 294 292 285 288 263 242 243 253 248 247 247 252 253 241 224 221 222 222 218 224 235 253 273 268 273 268 273
57 233 269 219 227 188 227 254 261 254 253 263 268 267 271 274 280 286 287 286 291 295 297 287 286 278 252 240 245 248 244 241 244 246 235 215 213 214 216 221 215 229 238 254 270 269 272 276 275
278 238 222 290 262 198 271 278 280 253 254 250 255 262 265 273 277 279 280 281 276 293 296 309 286 264 247 242 251 250 245 240 240 237 213 207 207 210 212 253 232 232 240 256 274 279 277 275 275
217 231 211 220 334 294 302 285 267 252 240 249 252 259 264 265 272 277 278 276 276 288 293 299 285 261 250 249 245 236 229 222 223 214 204 202 203 206 224 220 216 236 245 273 277 271 269 265 264
206 174 205 222 180 254 64 282 269 271 263 242 254 261 265 267 269 271 273 276 279 284 286 286 282 260 248 242 237 231 226 222 221 201 192 189 199 206 208 210 232 240 263 273 274 265 259 255 257
237 188 205 210 197 213 177 275 289 196 260 252 253 256 255 257 261 266 270 272 280 277 279 284 260 245 238 237 222 222 216 215 196 185 187 192 196 202 218 232 239 244 261 259 258 256 262 265 260
206 156 174 113 136 242 185 206 275 247 244 260 258 261 258 262 264 267 272 272 266 263 275 265 241 232 224 210 206 206 206 203 192 189 192 188 202 218 228 231 235 247 249 252 247 259 263 261 252
185 87 110 142 209 228 178 186 240 259 288 186 281 291 283 283 282 281 267 265 267 269 262 239 222 208 196 193 191 188 194 202 199 187 191 204 213 223 225 230 245 252 246 235 245 259 255 242 237
183 168 169 178 192 195 178 225 242 227 249 264 287 291 298 308 303 301 284 270 259 250 234 214 197 190 184 183 185 186 187 182 182 186 193 199 214 213 223 247 248 235 223 221 245 241 223 219 236
186 156 208 36 284 107 223 286 291 274 281 274 309 326 326 320 312 294 286 265 248 223 209 192 185 182 182 185 183 175 174 177 184 189 200 209 217 231 240 240 226 218 207 221 231 217 210 236 236
159 174 127 18 209 237 259 253 238 325 271 312 345 325 335 335 333 309 263 235 219 201 185 179 184 183 180 176 170 167 171 180 189 201 213 220 223 235 226 216 205 197 201 211 205 203 224 233 242
9 331 151 157 174 215 300 259 222 214 302 17 312 337 344 340 331 318 221 208 195 176 176 175 176 178 173 171 169 171 174 185 200 198 211 217 209 194 192 188 191 192 193 187 196 209 223 245 250
183 247 122 211 246 251 171 265 279 112 72 19 350 340 337 332 334 308 201 182 172 170 172 173 174 175 170 169 170 177 175 171 181 191 186 176 172 172 176 174 175 174 168 175 193 218 238 248 252
Wind_Speed_850mb
13 11 14 12 6 8 7 14 7 11 8 3 11 22 31 22 18 10 35 43 38 39 36 39 31 29 28 27 27 27 28 24 20 17 15 13 11 10 11 10 10 7 3 3 5 7 10 12 13
13 15 15 6 8 1 11 11 13 15 21 32 11 13 9 12 18 11 44 45 41 35 39 33 32 31 29 27 29 30 30 26 23 18 14 11 8 7 8 9 9 7 4 1 4 5 7 7 7
16 20 9 8 8 12 11 10 13 16 27 17 6 18 12 8 31 35 45 45 45 43 38 31 30 30 30 31 33 34 34 30 26 21 16 12 9 8 6 6 6 6 3 3 4 6 8 9 11
20 10 2 6 15 12 14 10 6 18 32 2 14 9 5 12 25 43 47 44 44 39 31 30 25 30 33 35 37 37 37 34 31 27 22 18 14 11 7 3 3 4 3 1 4 5 6 9 9
23 5 3 8 12 11 10 32 37 13 13 33 19 9 6 21 33 41 44 42 37 30 30 30 28 32 39 42 40 41 41 40 37 34 31 27 23 18 13 7 2 3 3 4 4 6 7 10 14
11 6 2 14 12 8 10 31 31 14 19 20 1 10 12 22 31 34 39 33 24 20 26 28 32 36 43 47 44 44 45 44 44 43 40 37 32 27 21 15 9 7 7 5 4 7 9 11 16
11 8 9 7 8 8 12 29 13 12 14 4 5 11 9 32 26 31 31 22 23 28 33 35 36 41 49 50 51 50 51 51 50 50 47 45 40 34 28 22 16 11 11 8 7 7 6 9 15
11 7 7 11 9 13 7 4 11 3 8 24 3 6 6 25 31 31 30 26 29 33 39 38 45 49 53 56 60 60 57 56 56 55 54 52 47 42 34 28 22 16 14 11 9 8 9 10 14
13 3 11 15 14 10 1 9 10 20 21 32 15 13 23 4 23 29 39 37 35 38 40 48 54 55 56 62 67 67 64 62 62 62 62 59 57 51 42 35 29 22 18 16 12 11 10 11 14
13 10 19 13 23 8 19 8 9 10 25 13 18 8 15 17 18 34 40 41 45 43 42 51 58 60 66 68 73 74 72 70 69 72 72 70 66 59 49 42 34 28 24 22 18 15 13 13 13
16 19 24 16 38 33 33 39 15 7 12 16 12 51 38 19 14 34 39 45 46 47 44 52 58 63 70 76 79 82 79 79 78 79 81 77 70 59 48 37 41 34 29 28 24 20 19 15 16
12 37 47 16 38 25 23 32 7 24 46 52 48 56 58 44 36 26 43 46 43 54 54 55 67 71 77 83 89 90 85 84 86 87 87 82 75 69 37 59 57 44 35 32 28 24 23 20 19
27 15 29 53 45 47 38 40 35 39 61 65 57 58 58 51 41 37 40 48 46 41 44 51 65 70 78 85 87 91 90 88 88 93 91 86 81 74 61 56 58 48 39 37 31 28 27 26 23
1 41 49 36 31 30 13 34 19 35 70 62 69 72 71 60 53 45 41 44 46 52 54 56 59 66 63 63 68 68 72 72 75 78 84 87 84 76 66 59 56 48 44 38 32 29 29 31 31
36 13 11 14 9 15 17 51 39 52 65 59 62 74 74 70 57 53 51 45 52 63 68 72 73 56 60 59 58 58 59 63 66 65 68 70 73 70 63 58 58 49 43 35 32 32 34 32 39
8 10 35 33 15 14 20 51 47 43 39 56 65 71 63 63 60 57 62 69 74 74 81 75 72 68 58 54 48 47 50 50 58 59 60 54 51 51 54 53 55 45 36 31 29 33 37 38 39
7 34 25 26 20 15 25 47 27 44 32 48 65 70 77 80 81 80 71 68 71 82 80 81 66 64 55 54 48 51 50 50 49 55 51 38 35 36 42 43 37 35 34 29 31 32 35 39 40
19 22 31 16 8 29 27 56 31 46 40 51 52 62 70 76 81 77 72 75 84 77 73 65 62 57 54 57 53 53 53 55 47 47 39 29 32 31 33 29 34 33 31 33 32 29 29 35 37
9 20 5 9 11 12 38 47 32 21 37 43 56 71 79 86 103 95 83 62 68 63 64 57 54 49 51 61 56 56 59 53 45 41 31 30 31 31 30 23 27 30 36 34 29 32 32 33 31
7 3 5 8 11 8 14 22 17 14 21 39 57 64 66 86 89 87 77 73 66 68 55 48 44 42 49 59 59 58 47 46 34 31 29 30 30 30 26 26 25 26 32 33 31 31 30 27 24
14 19 6 4 15 14 12 26 24 16 27 51 61 73 74 70 75 74 66 65 63 66 63 56 44 47 53 58 56 45 42 34 33 35 33 33 31 29 23 21 20 25 28 29 28 27 26 22 20
9 12 10 14 8 16 6 25 34 30 32 19 43 58 60 65 74 79 77 69 62 60 59 52 46 49 50 53 45 40 37 32 32 33 32 30 28 27 24 20 20 26 28 28 26 24 21 21 21
21 12 12 8 8 4 4 10 7 11 23 34 34 59 67 87 90 90 89 79 73 65 52 51 47 45 47 45 35 32 27 23 29 36 33 28 27 25 24 24 27 28 28 26 23 19 18 19 21
6 11 2 5 6 7 14 15 37 18 36 30 29 51 63 65 60 61 57 54 53 49 51 48 46 44 38 35 31 27 25 30 35 34 30 28 24 26 30 28 26 28 28 23 18 19 19 19 21
4 9 4 3 6 18 22 18 42 16 17 10 13 23 31 36 42 45 52 58 53 52 45 40 39 39 38 35 33 30 28 29 26 29 29 27 25 24 25 26 27 27 21 19 16 17 16 16 14
13 15 9 12 9 9 21 24 15 26 48 65 50 44 39 39 39 43 45 43 45 41 38 38 40 42 39 38 37 33 31 30 29 25 22 21 19 21 21 22 22 20 20 17 15 13 14 14 14
8 8 11 5 5 3 11 15 20 24 33 19 18 25 37 49 51 52 43 43 35 35 39 43 45 42 42 42 38 36 32 28 23 24 23 20 21 19 18 18 16 18 19 16 13 15 14 14 15
8 9 6 4 7 9 9 12 18 9 13 17 15 24 56 68 79 53 34 42 37 34 43 44 43 42 43 40 37 31 27 24 21 21 19 20 19 16 15 13 16 19 16 14 14 15 13 14 14
10 6 1 7 9 7 6 11 13 28 4 9 14 31 60 73 64 23 25 33 31 44 48 49 45 45 44 42 36 29 25 20 19 18 18 16 15 14 12 14 17 16 15 15 15 12 11 11 11
4 8 1 6 10 13 4 13 6 9 10 14 19 51 63 52 41 11 20 32 47 54 54 50 50 48 47 41 33 25 21 21 18 17 15 14 16 15 13 15 16 17 17 16 10 11 10 10 11
Wind_Direction_850mb
197 198 168 147 70 65 260 253 270 273 284 204 148 161 184 174 164 210 160 165 169 175 167 170 172 181 181 181 183 181 182 182 179 170 160 151 137 123 109 100 90 85 99 219 227 242 251 263 265
188 174 159 120 108 142 263 241 246 247 256 301 257 193 161 212 198 168 161 164 168 170 177 170 178 186 187 191 197 194 195 192 191 190 180 169 151 129 115 106 86 83 76 200 236 260 272 267 274
174 169 165 146 168 194 234 220 225 265 284 266 256 208 196 200 203 173 168 163 172 182 185 183 183 193 197 200 207 204 205 204 202 203 202 202 191 173 150 114 89 89 100 179 212 233 251 262 282
165 179 114 153 223 254 221 250 248 317 341 321 202 246 213 182 180 175 165 171 178 179 186 194 200 207 208 209 213 211 213 215 214 213 216 221 222 216 202 158 85 59 47 294 226 239 242 261 266
171 195 160 255 239 246 251 269 291 284 279 284 274 256 225 187 161 173 178 172 176 176 191 202 213 217 216 215 218 219 222 223 223 222 224 227 228 225 225 232 262 348 11 337 288 266 266 277 281
151 127 111 236 234 232 245 257 262 259 290 288 134 182 239 188 167 168 176 176 174 188 197 209 218 225 225 221 222 228 231 231 230 230 229 231 231 227 227 233 253 298 327 320 298 272 277 284 283
161 117 217 235 267 254 234 260 216 262 285 309 211 158 236 194 182 178 173 170 193 206 218 224 225 231 229 230 230 232 234 235 236 236 235 235 235 234 230 231 242 269 297 296 301 293 286 286 285
212 130 206 226 216 259 264 296 328 307 276 353 15 205 230 192 191 185 186 196 207 218 226 239 241 237 238 237 236 235 236 237 240 240 239 239 238 236 234 235 240 254 276 271 285 285 288 298 287
184 143 223 213 184 233 137 24 326 324 288 329 359 38 9 148 197 195 203 211 218 226 236 240 244 246 247 245 243 240 239 241 242 242 242 240 239 237 237 238 241 247 263 256 262 270 284 304 301
173 186 227 182 221 261 293 282 318 315 322 315 264 14 19 17 254 217 216 223 228 233 245 251 249 252 250 251 250 245 243 243 243 242 241 240 242 240 241 240 240 246 257 255 254 258 271 299 295
195 227 232 236 224 243 267 286 251 255 278 246 271 313 320 325 317 260 245 235 242 246 247 271 262 256 259 256 256 250 250 246 248 246 244 243 243 239 235 258 249 248 255 255 255 258 262 286 287
206 223 232 249 234 250 257 268 220 230 258 282 290 296 299 296 294 291 259 253 262 261 262 285 271 261 262 261 257 257 254 254 253 251 248 245 243 237 231 272 252 251 254 256 257 260 260 266 271
239 230 227 242 255 262 272 265 271 264 270 278 291 292 290 290 292 292 286 266 259 272 287 291 277 268 270 266 262 258 256 260 261 257 255 250 247 242 245 263 243 248 255 257 259 262 255 255 268
142 233 250 260 259 268 268 276 247 274 276 285 288 287 286 290 288 289 284 280 276 294 300 303 290 288 284 271 260 256 256 259 263 265 262 255 251 248 247 251 247 246 260 256 262 264 257 263 265
260 295 298 232 221 251 265 279 249 256 275 283 283 279 280 285 286 283 287 285 289 296 302 297 295 294 286 277 259 248 256 257 262 266 265 263 257 252 249 250 247 250 253 250 261 265 250 254 261
194 188 248 251 181 230 169 262 274 265 254 258 270 273 278 280 282 284 288 291 294 298 300 295 288 292 283 267 247 257 260 257 256 261 263 267 262 251 246 244 245 245 234 250 266 271 254 261 261
233 237 221 254 216 193 185 256 253 248 251 265 268 274 277 278 278 279 284 289 295 298 297 297 292 289 272 254 245 259 254 251 253 258 261 263 251 234 233 232 233 225 232 254 280 271 263 257 261
208 219 237 220 183 198 224 254 250 266 277 268 271 277 279 277 276 284 288 292 294 298 294 292 285 288 263 242 243 253 248 247 247 252 253 241 224 221 222 222 218 224 235 253 273 268 273 268 273
57 233 269 219 227 188 227 254 261 254 253 263 268 267 271 274 280 286 287 286 291 295 297 287 286 278 252 240 245 248 244 241 244 246 235 215 213 214 216 221 215 229 238 254 270 269 272 276 275
278 238 222 290 262 198 271 278 280 253 254 250 255 262 265 273 277 279 280 281 276 293 296 309 286 264 247 242 251 250 245 240 240 237 213 207 207 210 212 253 232 232 240 256 274 279 277 275 275
217 231 211 220 334 294 302 285 267 252 240 249 252 259 264 265 272 277 278 276 276 288 293 299 285 261 250 249 245 236 229 222 223 214 204 202 203 206 224 220 216 236 245 273 277 271 269 265 264
206 174 205 222 180 254 64 282 269 271 263 242 254 261 265 267 269 271 273 276 279 284 286 286 282 260 248 242 237 231 226 222 221 201 192 189 199 206 208 210 232 240 263 273 274 265 259 255 257
237 188 205 210 197 213 177 275 289 196 260 252 253 256 255 257 261 266 270 272 280 277 279 284 260 245 238 237 222 222 216 215 196 185 187 192 196 202 218 232 239 244 261 259 258 256 262 265 260
206 156 174 113 136 242 185 206 275 247 244 260 258 261 258 262 264 267 272 272 266 263 275 265 241 232 224 210 206 206 206 203 192 189 192 188 202 218 228 231 235 247 249 252 247 259 263 261 252
185 87 110 142 209 228 178 186 240 259 288 186 281 291 283 283 282 281 267 265 267 269 262 239 222 208 196 193 191 188 194 202 199 187 191 204 213 223 225 230 245 252 246 235 245 259 255 242 237
183 168 169 178 192 195 178 225 242 227 249 264 287 291 298 308 303 301 284 270 259 250 234 214 197 190 184 183 185 186 187 182 182 186 193 199 214 213 223 247 248 235 223 221 245 241 223 219 236
186 156 208 36 284 107 223 286 291 274 281 274 309 326 326 320 312 294 286 265 248 223 209 192 185 182 182 185 183 175 174 177 184 189 200 209 217 231 240 240 226 218 207 221 231 217 210 236 236
159 174 127 18 209 237 259 253 238 325 271 312 345 325 335 335 333 309 263 235 219 201 185 179 184 183 180 176 170 167 171 180 189 201 213 220 223 235 226 216 205 197 201 211 205 203 224 233 242
9 331 151 157 174 215 300 259 222 214 302 17 312 337 344 340 331 318 221 208 195 176 176 175 176 178 173 171 169 171 174 185 200 198 211 217 209 194 192 188 191 192 193 187 196 209 223 245 250
183 247 122 211 246 251 171 265 279 112 72 19 350 340 337 332 334 308 201 182 172 170 172 173 174 175 170 169 170 177 175 171 181 191 186 176 172 172 176 174 175 174 168 175 193 218 238 248 252